Weather History for Hyannis, MA

Change the Weather History Date:

Monday, January 21, 2013

  Actual Average Record
Temperature  
Mean Temperature 27 °F -  
Max Temperature 30 °F 36 °F 56 °F (1986)
Min Temperature 24 °F 18 °F -4 °F (1970)
Degree Days  
Heating Degree Days 38    
Moisture  
Dew Point 19 °F    
Average Humidity 72    
Maximum Humidity 100    
Minimum Humidity 36    
Precipitation  
Precipitation 0.12 in - - ()
Sea Level Pressure  
Sea Level Pressure 29.92 in    
Wind  
Wind Speed 6 mph (NNW)    
Max Wind Speed 9 mph    
Max Gust Speed 23 mph    
Visibility 6 miles    
Events Snow    
Averages and records for this station are not official NWS values.
T = Trace of Precipitation, MM = Missing Value Source: NWS Daily Summary

Daily Weather History Graph

Daily Weather History Graph

Search for Another Location

Airport:

Trip Planner

Search our weather history database for the weather conditions in past years. The results will help you decide how hot, cold, wet, or windy it might be!

Date:

Astronomy

Jan. 21, 2013 Rise Set
Actual Time 7:02 AM EST 4:43 PM EST
Civil Twilight 6:32 AM EST 5:13 PM EST
Nautical Twilight 5:58 AM EST 5:47 PM EST
Astronomical Twilight 5:25 AM EST 6:20 PM EST
Moon 12:20 PM EST (1/21) 2:27 AM EST (1/21)
Length of Visible Light 10h 41m
Length of Day
9h 41m
Waxing Gibbous, 75% of the Moon is Illuminated
Jan 21
Waxing Gibbous
Jan 26
Full
Feb 3
Last Quarter
Feb 10
New
Feb 17
First Quarter

Hourly Weather History & Observations

Time (EST) Temp. Windchill Dew Point Humidity Pressure Visibility Wind Dir Wind Speed Gust Speed Precip Events Conditions
12:56 AM 28.9 °F 20.4 °F 10.0 °F 45% 29.93 in 10.0 mi WNW 9.2 mph - N/A   Clear
1:56 AM 28.9 °F 21.1 °F 9.0 °F 43% 29.97 in 10.0 mi West 8.1 mph - N/A   Clear
2:56 AM 28.0 °F 20.0 °F 9.0 °F 45% 29.99 in 10.0 mi WNW 8.1 mph 17.3 mph N/A   Clear
3:56 AM 28.0 °F 19.3 °F 8.1 °F 43% 30.00 in 10.0 mi NW 9.2 mph 23.0 mph N/A   Clear
4:56 AM 27.0 °F 18.7 °F 8.1 °F 45% 30.02 in 10.0 mi WNW 8.1 mph 17.3 mph N/A   Clear
5:56 AM 25.0 °F 16.3 °F 7.0 °F 46% 30.04 in 10.0 mi WNW 8.1 mph - N/A   Clear
6:56 AM 24.1 °F 16.0 °F 6.1 °F 46% 30.06 in 10.0 mi WNW 6.9 mph - N/A   Clear
7:56 AM 25.0 °F 15.5 °F 6.1 °F 45% 30.09 in 10.0 mi West 9.2 mph - N/A   Clear
8:56 AM 27.0 °F 20.5 °F 5.0 °F 39% 30.09 in 10.0 mi NW 5.8 mph 19.6 mph N/A   Clear
9:56 AM 28.9 °F 21.9 °F 5.0 °F 36% 30.09 in 10.0 mi Variable 6.9 mph - N/A   Clear
10:56 AM 28.9 °F 23.9 °F 6.1 °F 38% 30.08 in 10.0 mi North 4.6 mph - N/A   Scattered Clouds
11:56 AM 30.0 °F - 7.0 °F 38% 30.04 in 10.0 mi Calm Calm - N/A   Overcast
12:56 PM 30.9 °F 22.8 °F 9.0 °F 40% 30.01 in 10.0 mi SSW 9.2 mph - N/A   Clear
1:56 PM 30.0 °F 23.2 °F 10.9 °F 45% 29.99 in 10.0 mi SSW 6.9 mph - N/A   Mostly Cloudy
2:56 PM 28.9 °F 21.9 °F 10.9 °F 47% 29.99 in 10.0 mi SSW 6.9 mph - N/A   Overcast
3:56 PM 28.0 °F 22.8 °F 12.9 °F 53% 29.97 in 10.0 mi South 4.6 mph - N/A   Overcast
4:56 PM 28.0 °F 21.7 °F 18.0 °F 66% 29.94 in 8.0 mi South 5.8 mph - 0.00 in Snow Light Snow
5:22 PM 26.6 °F 21.2 °F 19.4 °F 74% 29.93 in 4.0 mi South 4.6 mph - 0.00 in Snow Light Snow
5:34 PM 26.6 °F 22.6 °F 21.2 °F 80% 29.92 in 1.8 mi South 3.5 mph - 0.00 in Snow Light Snow
5:56 PM 27.0 °F 23.0 °F 23.0 °F 85% 29.92 in 1.5 mi South 3.5 mph - 0.00 in Snow Light Snow
6:12 PM 26.6 °F - 24.8 °F 93% 29.91 in 1.5 mi Calm Calm - 0.00 in Snow Light Snow
6:35 PM 28.4 °F 24.6 °F 24.8 °F 86% 29.91 in 1.5 mi SSE 3.5 mph - 0.01 in Snow Light Snow
6:56 PM 28.0 °F - 26.1 °F 92% 29.91 in 1.5 mi Calm Calm - 0.03 in Snow Light Snow
7:03 PM 28.4 °F - 26.6 °F 93% 29.91 in 0.8 mi Calm Calm - 0.00 in Snow Light Snow
7:11 PM 28.4 °F - 26.6 °F 93% 29.91 in 1.0 mi Calm Calm - 0.00 in Snow Light Snow
7:24 PM 28.4 °F - 26.6 °F 93% 29.90 in 0.8 mi Calm Calm - 0.01 in Snow Light Snow
7:47 PM 28.4 °F 24.6 °F 26.6 °F 93% 29.89 in 1.2 mi ENE 3.5 mph - 0.02 in Snow Light Snow
7:56 PM 28.0 °F - 26.1 °F 92% 29.89 in 1.2 mi Calm Calm - 0.03 in Snow Light Snow
8:28 PM 28.4 °F 23.3 °F 26.6 °F 93% 29.87 in 1.0 mi NE 4.6 mph - 0.01 in Snow Light Snow
8:35 PM 28.4 °F 23.3 °F 26.6 °F 93% 29.87 in 0.8 mi NE 4.6 mph - 0.01 in Snow Light Snow
8:54 PM 28.4 °F 24.6 °F 26.6 °F 93% 29.87 in 1.0 mi NE 3.5 mph - 0.03 in Snow Light Snow
8:56 PM 28.0 °F 22.8 °F 26.1 °F 92% 29.88 in 1.0 mi NE 4.6 mph - 0.03 in Snow Light Snow
9:25 PM 28.4 °F 24.6 °F 26.6 °F 93% 29.85 in 1.0 mi NNE 3.5 mph - 0.01 in Snow Light Snow
9:56 PM 28.0 °F 22.8 °F 26.1 °F 92% 29.83 in 2.0 mi North 4.6 mph - 0.02 in Snow Light Snow
10:16 PM 28.4 °F 24.6 °F 26.6 °F 93% 29.80 in 1.2 mi NNE 3.5 mph - 0.00 in Snow Light Snow
10:43 PM 28.4 °F 23.3 °F 28.4 °F 100% 29.79 in 1.2 mi North 4.6 mph - 0.01 in Snow Light Snow
10:56 PM 30.0 °F 24.1 °F 28.0 °F 92% 29.78 in 3.0 mi North 5.8 mph - 0.01 in Snow Light Snow
11:21 PM 30.2 °F 25.4 °F 28.4 °F 93% 29.76 in 5.0 mi Variable 4.6 mph - 0.00 in Snow Light Snow
11:34 PM 30.2 °F 25.4 °F 28.4 °F 93% 29.76 in 9.0 mi North 4.6 mph - 0.00 in   Overcast
11:42 PM 30.2 °F 25.4 °F 28.4 °F 93% 29.76 in 10.0 mi NNE 4.6 mph - 0.00 in   Overcast
11:56 PM 28.9 °F 21.9 °F 27.0 °F 92% 29.75 in 10.0 mi NNE 6.9 mph - 0.00 in   Overcast